Regional Weather Roundup
Issued by NWS

Home | Current Version | Previous Version | Text Only | Print | Product List | Glossary Off
Versions: 1 2 3 4 5 6 7 8 9 10 11 12 13 14 15 16 17 18 19 20 21 22 23 24 25 26 27 28 29 30 31 32 33 34 35 36 37 38 39 40 41 42 43 44 45 46 47 48 49 50

000
ASUS43 KOAX 041510
RWRNE

WEATHER ROUNDUP FOR NEBRASKA
NATIONAL WEATHER SERVICE OMAHA NE
1000 AM CDT FRI SEP 04 2015

NOTES: SATELLITE DATA IS BEING USED TO AUGMENT CLOUD COVER ABOVE
       12000 FEET.
       "FAIR" INDICATES FEW OR NO CLOUDS BELOW 12,000 FEET WITH NO
       SIGNIFICANT WEATHER AND/OR OBSTRUCTIONS TO VISIBILITY.

  * THESE STATIONS DO NOT REPORT WEATHER SUCH AS RAIN...SNOW OR FOG.

NEZ001>004-019>022-054>056-041600-
NEBRASKA PANHANDLE

CITY           SKY/WX    TMP DP  RH WIND       PRES   REMARKS
SCOTTSBLUFF    SUNNY     68  54  60 CALM      29.92S
ALLIANCE       SUNNY     71  55  56 VRB3      29.90S
CHADRON        SUNNY     74  52  46 W8        29.85S
KIMBALL        SUNNY     70  52  52 W6        29.97R
SIDNEY         SUNNY     73  48  41 NW8       29.95R
$$

NEZ057>060-069>072-079>082-041600-
SOUTHWEST NEBRASKA

CITY           SKY/WX    TMP DP  RH WIND       PRES   REMARKS
NORTH PLATTE   SUNNY     73  62  68 SE3       29.85R
IMPERIAL       SUNNY     73  58  59 NW6       29.89R
LEXINGTON      MOSUNNY   76  62  62 SE9       29.84F
MCCOOK         MOSUNNY   76  62  62 W8        29.84R
OGALLALA       SUNNY     68  61  77 W6        29.89S
$$

NEZ005>010-023>029-035>040-094-041600-
NORTH CENTRAL NEBRASKA

CITY           SKY/WX    TMP DP  RH WIND       PRES   REMARKS
VALENTINE      SUNNY     75  64  68 SW6       29.82S
AINSWORTH      MOSUNNY   75  66  74 S13       29.81F
BROKEN BOW     PTSUNNY   76  62  62 S14       29.85S
O`NEILL        PTSUNNY   78  67  69 S14       29.86R
ORD            PTSUNNY   77  64  64 S12G20    29.84S
THEDFORD       SUNNY     77  64  64 S3        29.85S
$$

NEZ041-046>049-061>064-073>077-083>087-041600-
SOUTH CENTRAL NEBRASKA

CITY           SKY/WX    TMP DP  RH WIND       PRES   REMARKS
GRAND ISLAND   PTSUNNY   77  65  66 S18       29.87S
AURORA         MOSUNNY   78  67  66 S17G24    29.88S
HASTINGS       MOSUNNY   79  65  62 S14G26    29.88S
HEBRON         PTSUNNY   75  67  76 SE9       29.91F
HOLDREGE       MOSUNNY   76  61  59 S16G22    29.86S
KEARNEY *      MOSUNNY   77  61  57 S21G29    29.85F
YORK           MOSUNNY   77  68  73 S18       29.89S
$$

NEZ011>018-030>034-042>045-041600-
NORTHEAST NEBRASKA

CITY           SKY/WX    TMP DP  RH WIND       PRES   REMARKS
NORFOLK        CLOUDY    77  68  73 SE13      29.85F
ALBION         PTSUNNY   74  65  72 S15G21    29.87R
BLAIR          CLOUDY    75  67  76 S10       29.93S
COLUMBUS *     PTSUNNY   77  64  65 SE8       29.87F
FREMONT        CLOUDY    76  68  76 SE10G16   29.91S
TEKAMAH        CLOUDY    74  71  91 S8        29.90F
WAYNE          CLOUDY    71  68  89 S12       29.87S
$$

NEZ050>053-065>068-078-088>093-041600-
SOUTHEAST NEBRASKA

CITY           SKY/WX    TMP DP  RH WIND       PRES   REMARKS
LINCOLN        LGT RAIN  72  69  90 S10       29.90F
OMAHA EPPLEY   CLOUDY    78  69  73 S15       29.93S
BEATRICE       CLOUDY    76  69  80 S7        29.94F
FALLS CITY     MOSUNNY   81  70  69 S8        29.96R
NEBRASKA CITY  CLOUDY    78  66  68 S9        29.96S
PLATTSMOUTH    CLOUDY    75  68  77 SE8       29.94F
$$

NEZ044-045-051>053-067-041600-
OMAHA AREA

CITY           SKY/WX    TMP DP  RH WIND       PRES   REMARKS
OMAHA EPPLEY   CLOUDY    78  69  73 S15       29.93S
BLAIR          CLOUDY    75  67  76 S10       29.93S
FREMONT        CLOUDY    76  68  76 SE10G16   29.91S
MILLARD        CLOUDY    76  70  80 SE9       29.92F
OFFUTT AFB     CLOUDY    78  69  76 SE8       29.93S
PLATTSMOUTH    CLOUDY    75  68  77 SE8       29.94F
WAHOO          FAIR      75  70  83 SE10      29.90F
$$



USA.gov is the U.S. government's official web portal to all federal, state and local government web resources and services.